^^
Datos históricos de la estación: Murcia-Puente Tocinos
Diario Informe para Enero 5, 2019 Unidades:  Métrico    Inglés   Ambas
Diario Semanal Mensual Anual Configurable
  Máximo: Mínimo: Media:
Temperatura: 17.6 °C 3.3 °C 9.2 °C
Punto de rocio: 7.1 °C -1.3 °C 2.7 °C
Humedad: 89% 28% 68%
Velocidad viento: 11.3km/h 1.6km/h 6.5km/h
Racha viento: 19.3km/h - -
Viento- - SSW
Presión: 1032.6 hPa 1027.3 hPa -
Precipitación: 0.0 mm    
Historical Graphs
 
 
Tabla de datos para Enero 5, 2019
Hora Temperatura Punto de rocio Presión Viento Velocidad viento Racha viento Humedad Intensidad lluvia(por hora) Nubes
00:00 7.6 °C 5.3 °C 1030.4 hPa SSE 8.0 km/h 11.3 km/h 85% 0.0 mm CLR
00:05 7.4 °C 5.2 °C 1030.4 hPa South 6.9 km/h 9.3 km/h 86% 0.0 mm CLR
00:10 7.3 °C 5.1 °C 1030.4 hPa SSE 8.4 km/h 13.0 km/h 86% 0.0 mm CLR
00:15 7.1 °C 5.1 °C 1030.4 hPa SSE 8.4 km/h 9.5 km/h 87% 0.0 mm CLR
00:20 6.9 °C 4.9 °C 1030.4 hPa SSE 8.7 km/h 9.5 km/h 87% 0.0 mm CLR
00:25 6.8 °C 4.9 °C 1030.4 hPa SSE 8.7 km/h 9.3 km/h 88% 0.0 mm CLR
00:30 6.7 °C 4.8 °C 1030.4 hPa SSW 7.6 km/h 11.1 km/h 88% 0.0 mm CLR
00:35 6.7 °C 4.8 °C 1030.4 hPa South 7.6 km/h 10.0 km/h 88% 0.0 mm CLR
00:40 6.7 °C 4.8 °C 1030.4 hPa South 7.6 km/h 7.4 km/h 88% 0.0 mm CLR
00:45 6.7 °C 4.7 °C 1030.4 hPa South 7.6 km/h 13.0 km/h 87% 0.0 mm CLR
00:50 6.6 °C 4.4 °C 1030.4 hPa SSW 7.6 km/h 10.0 km/h 86% 0.0 mm CLR
00:55 6.6 °C 4.3 °C 1030.4 hPa SW 7.6 km/h 11.1 km/h 85% 0.0 mm CLR
01:00 6.6 °C 4.1 °C 1030.4 hPa SW 8.0 km/h 11.3 km/h 84% 0.0 mm CLR
01:05 6.7 °C 4.0 °C 1030.4 hPa WSW 7.6 km/h 5.6 km/h 83% 0.0 mm CLR
01:10 6.7 °C 3.8 °C 1030.4 hPa SSW 3.9 km/h 7.4 km/h 82% 0.0 mm CLR
01:15 6.7 °C 3.8 °C 1030.4 hPa SW 3.9 km/h 7.4 km/h 82% 0.0 mm CLR
01:20 6.8 °C 3.9 °C 1030.5 hPa SSW 5.8 km/h 7.4 km/h 82% 0.0 mm CLR
01:25 6.8 °C 3.9 °C 1030.5 hPa South 5.8 km/h 7.4 km/h 82% 0.0 mm CLR
01:30 6.7 °C 3.8 °C 1030.5 hPa South 5.8 km/h 7.6 km/h 82% 0.0 mm CLR
01:35 6.6 °C 3.7 °C 1030.5 hPa South 5.8 km/h 7.6 km/h 82% 0.0 mm CLR
01:40 6.6 °C 3.7 °C 1030.5 hPa South 5.8 km/h 8.4 km/h 82% 0.0 mm CLR
01:45 6.4 °C 3.4 °C 1030.5 hPa SSW 5.8 km/h 7.6 km/h 81% 0.0 mm CLR
01:50 6.4 °C 3.4 °C 1030.7 hPa South 6.4 km/h 9.3 km/h 81% 0.0 mm CLR
01:55 6.3 °C 3.3 °C 1030.7 hPa South 6.4 km/h 9.3 km/h 81% 0.0 mm CLR
02:00 6.2 °C 3.2 °C 1030.7 hPa South 8.0 km/h 11.3 km/h 81% 0.0 mm CLR
02:05 6.2 °C 3.2 °C 1030.7 hPa South 6.9 km/h 11.1 km/h 81% 0.0 mm CLR
02:10 6.2 °C 3.2 °C 1030.7 hPa SSW 7.6 km/h 9.5 km/h 81% 0.0 mm CLR
02:15 6.2 °C 3.2 °C 1030.7 hPa SSW 7.6 km/h 11.1 km/h 81% 0.0 mm CLR
02:20 6.0 °C 3.0 °C 1030.7 hPa South 7.6 km/h 13.0 km/h 81% 0.0 mm CLR
02:25 5.9 °C 3.1 °C 1030.7 hPa SSW 7.6 km/h 13.0 km/h 82% 0.0 mm CLR
02:30 5.8 °C 2.9 °C 1030.7 hPa SSW 9.5 km/h 11.1 km/h 82% 0.0 mm CLR
02:35 5.8 °C 2.9 °C 1030.7 hPa SSW 9.5 km/h 13.0 km/h 82% 0.0 mm CLR
02:40 5.8 °C 2.9 °C 1030.7 hPa SSW 8.4 km/h 11.1 km/h 82% 0.0 mm CLR
02:45 5.9 °C 2.9 °C 1030.7 hPa SW 8.4 km/h 9.3 km/h 81% 0.0 mm CLR
02:50 5.9 °C 2.9 °C 1030.9 hPa WSW 7.6 km/h 9.3 km/h 81% 0.0 mm CLR
02:55 6.1 °C 3.1 °C 1030.9 hPa SW 7.6 km/h 11.1 km/h 81% 0.0 mm CLR
03:00 6.1 °C 3.1 °C 1030.9 hPa SW 8.0 km/h 11.3 km/h 81% 0.0 mm CLR
03:05 6.1 °C 2.9 °C 1030.9 hPa SW 6.9 km/h 11.1 km/h 80% 0.0 mm CLR
03:10 6.1 °C 2.9 °C 1030.9 hPa WSW 6.9 km/h 9.3 km/h 80% 0.0 mm CLR
03:15 6.1 °C 2.7 °C 1030.9 hPa West 6.9 km/h 9.3 km/h 79% 0.0 mm CLR
03:20 6.0 °C 2.6 °C 1031.0 hPa West 6.4 km/h 7.4 km/h 79% 0.0 mm CLR
03:25 5.9 °C 2.6 °C 1031.0 hPa South 6.4 km/h 7.4 km/h 79% 0.0 mm CLR
03:30 5.9 °C 2.7 °C 1031.0 hPa South 4.7 km/h 5.6 km/h 80% 0.0 mm CLR
03:35 5.8 °C 2.8 °C 1031.1 hPa SSE 4.7 km/h 7.4 km/h 81% 0.0 mm CLR
03:40 5.6 °C 2.8 °C 1031.1 hPa SSE 3.9 km/h 7.4 km/h 82% 0.0 mm CLR
03:45 5.2 °C 2.7 °C 1031.1 hPa SSE 3.9 km/h 8.7 km/h 84% 0.0 mm CLR
03:50 5.0 °C 2.7 °C 1031.1 hPa South 5.8 km/h 7.4 km/h 85% 0.0 mm CLR
03:55 4.8 °C 2.7 °C 1031.1 hPa SE 5.8 km/h 9.3 km/h 86% 0.0 mm CLR
04:00 4.7 °C 2.6 °C 1031.1 hPa SE 4.8 km/h 9.7 km/h 86% 0.0 mm CLR
04:05 4.6 °C 2.6 °C 1031.2 hPa SE 5.8 km/h 7.4 km/h 87% 0.0 mm CLR
04:10 4.5 °C 2.5 °C 1031.2 hPa South 5.8 km/h 9.3 km/h 87% 0.0 mm CLR
04:15 4.4 °C 2.6 °C 1031.2 hPa South 5.8 km/h 11.1 km/h 88% 0.0 mm CLR
04:20 4.3 °C 2.5 °C 1031.1 hPa South 7.6 km/h 9.3 km/h 88% 0.0 mm CLR
04:25 4.3 °C 2.5 °C 1031.1 hPa South 7.6 km/h 11.1 km/h 88% 0.0 mm CLR
04:30 4.4 °C 2.7 °C 1031.1 hPa South 6.9 km/h 11.1 km/h 89% 0.0 mm CLR
04:35 4.4 °C 2.7 °C 1031.0 hPa South 6.9 km/h 12.2 km/h 89% 0.0 mm CLR
04:40 4.4 °C 2.7 °C 1031.0 hPa SSW 8.4 km/h 13.0 km/h 89% 0.0 mm CLR
04:45 4.4 °C 2.6 °C 1031.0 hPa SSE 8.4 km/h 11.1 km/h 88% 0.0 mm CLR
04:50 4.5 °C 2.7 °C 1030.9 hPa South 8.4 km/h 9.3 km/h 88% 0.0 mm CLR
04:55 4.5 °C 2.7 °C 1030.9 hPa SSE 8.4 km/h 9.3 km/h 88% 0.0 mm CLR
05:00 4.5 °C 2.7 °C 1030.9 hPa South 8.0 km/h 9.7 km/h 88% 0.0 mm CLR
05:05 4.5 °C 2.5 °C 1030.9 hPa South 6.9 km/h 11.1 km/h 87% 0.0 mm CLR
05:10 4.5 °C 2.5 °C 1030.9 hPa SSW 6.9 km/h 11.1 km/h 87% 0.0 mm CLR
05:15 4.5 °C 2.5 °C 1030.9 hPa SSW 6.9 km/h 11.1 km/h 87% 0.0 mm CLR
05:20 4.5 °C 2.5 °C 1031.0 hPa SSW 7.6 km/h 11.1 km/h 87% 0.0 mm CLR
05:25 4.6 °C 2.4 °C 1031.0 hPa WSW 7.6 km/h 13.0 km/h 86% 0.0 mm CLR
05:30 4.6 °C 2.3 °C 1031.0 hPa SSW 8.4 km/h 11.1 km/h 85% 0.0 mm CLR
05:35 4.6 °C 2.1 °C 1030.8 hPa South 8.4 km/h 13.0 km/h 84% 0.0 mm CLR
05:40 4.4 °C 1.9 °C 1030.8 hPa SSW 9.5 km/h 11.1 km/h 84% 0.0 mm CLR
05:45 4.4 °C 1.8 °C 1030.8 hPa SSW 9.5 km/h 9.3 km/h 83% 0.0 mm CLR
05:50 4.3 °C 1.8 °C 1030.9 hPa SSW 6.9 km/h 5.6 km/h 84% 0.0 mm CLR
05:55 4.3 °C 1.8 °C 1030.9 hPa SSW 6.9 km/h 7.4 km/h 84% 0.0 mm CLR
06:00 4.3 °C 1.8 °C 1030.9 hPa SSW 3.2 km/h 8.0 km/h 84% 0.0 mm CLR
06:05 4.4 °C 1.8 °C 1031.0 hPa SW 3.9 km/h 7.4 km/h 83% 0.0 mm CLR
06:10 4.4 °C 1.6 °C 1031.0 hPa SW 4.7 km/h 9.3 km/h 82% 0.0 mm CLR
06:15 4.4 °C 1.6 °C 1031.0 hPa SW 4.7 km/h 7.4 km/h 82% 0.0 mm CLR
06:20 4.5 °C 1.5 °C 1031.0 hPa SSW 5.8 km/h 7.4 km/h 81% 0.0 mm CLR
06:25 4.5 °C 1.5 °C 1031.0 hPa SSW 5.8 km/h 5.6 km/h 81% 0.0 mm CLR
06:30 4.5 °C 1.5 °C 1031.0 hPa SSW 4.7 km/h 7.4 km/h 81% 0.0 mm CLR
06:35 4.5 °C 1.5 °C 1031.1 hPa SSW 4.7 km/h 5.6 km/h 81% 0.0 mm CLR
06:40 4.4 °C 1.4 °C 1031.1 hPa SSW 3.9 km/h 5.6 km/h 81% 0.0 mm CLR
06:45 4.4 °C 1.6 °C 1031.1 hPa South 3.9 km/h 9.3 km/h 82% 0.0 mm CLR
06:50 4.3 °C 1.5 °C 1031.0 hPa SSE 4.7 km/h 7.4 km/h 82% 0.0 mm CLR
06:55 4.2 °C 1.6 °C 1031.0 hPa South 4.7 km/h 7.4 km/h 83% 0.0 mm CLR
07:00 4.1 °C 1.6 °C 1031.0 hPa South 4.8 km/h 8.0 km/h 84% 0.0 mm CLR
07:05 4.1 °C 1.6 °C 1031.4 hPa South 5.0 km/h 3.7 km/h 84% 0.0 mm CLR
07:10 4.1 °C 1.8 °C 1031.4 hPa South 3.2 km/h 7.4 km/h 85% 0.0 mm CLR
07:15 4.1 °C 1.9 °C 1031.4 hPa SSW 3.2 km/h 6.9 km/h 86% 0.0 mm CLR
07:20 4.1 °C 1.9 °C 1031.3 hPa SSW 4.7 km/h 7.4 km/h 86% 0.0 mm CLR
07:25 4.0 °C 1.9 °C 1031.3 hPa South 4.7 km/h 9.3 km/h 86% 0.0 mm CLR
07:30 3.8 °C 1.8 °C 1031.3 hPa South 6.4 km/h 11.1 km/h 87% 0.0 mm CLR
07:35 3.7 °C 1.9 °C 1031.4 hPa SSE 6.4 km/h 11.1 km/h 88% 0.0 mm CLR
07:40 3.5 °C 1.7 °C 1031.4 hPa SSE 8.4 km/h 9.3 km/h 88% 0.0 mm CLR
07:45 3.5 °C 1.8 °C 1031.4 hPa South 8.4 km/h 9.3 km/h 89% 0.0 mm CLR
07:50 3.4 °C 1.8 °C 1031.3 hPa South 6.4 km/h 7.4 km/h 89% 0.0 mm CLR
07:55 3.4 °C 1.8 °C 1031.3 hPa SSW 6.4 km/h 11.1 km/h 89% 0.0 mm CLR
08:00 3.4 °C 1.8 °C 1031.3 hPa SSW 8.0 km/h 11.3 km/h 89% 0.0 mm CLR
08:05 3.5 °C 1.7 °C 1031.5 hPa South 6.9 km/h 9.3 km/h 88% 0.0 mm CLR
08:10 3.6 °C 1.5 °C 1031.5 hPa SSW 6.9 km/h 11.1 km/h 86% 0.0 mm CLR
08:15 3.6 °C 1.3 °C 1031.5 hPa SSW 6.9 km/h 11.1 km/h 85% 0.0 mm CLR
08:20 3.7 °C 1.2 °C 1031.6 hPa SSW 7.6 km/h 9.3 km/h 84% 0.0 mm CLR
08:25 3.7 °C 1.1 °C 1031.6 hPa South 7.6 km/h 9.3 km/h 83% 0.0 mm CLR
08:30 3.6 °C 1.0 °C 1031.6 hPa South 6.4 km/h 9.3 km/h 83% 0.0 mm CLR
08:35 3.6 °C 1.0 °C 1031.6 hPa SSE 6.4 km/h 9.3 km/h 83% 0.0 mm CLR
08:40 3.4 °C 0.9 °C 1031.6 hPa South 5.8 km/h 7.6 km/h 84% 0.0 mm CLR
08:45 3.3 °C 0.8 °C 1031.6 hPa South 5.8 km/h 3.9 km/h 84% 0.0 mm CLR
08:50 3.3 °C 1.0 °C 1031.8 hPa South 4.7 km/h 7.4 km/h 85% 0.0 mm CLR
08:55 3.4 °C 1.1 °C 1031.8 hPa South 4.7 km/h   85% 0.0 mm CLR
09:00 3.6 °C 1.2 °C 1031.8 hPa South 1.6 km/h   84% 0.0 mm CLR
09:05 3.7 °C 1.1 °C 1031.9 hPa South 2.3 km/h 7.4 km/h 83% 0.0 mm CLR
09:10 3.7 °C 1.1 °C 1031.9 hPa South 3.2 km/h 9.3 km/h 83% 0.0 mm CLR
09:15 3.7 °C 1.1 °C 1031.9 hPa SSE 3.2 km/h 9.3 km/h 83% 0.0 mm CLR
09:20 3.7 °C 1.1 °C 1032.1 hPa SSW 6.4 km/h 9.5 km/h 83% 0.0 mm CLR
09:25 3.7 °C 1.1 °C 1032.1 hPa SW 6.4 km/h 7.4 km/h 83% 0.0 mm CLR
09:30 3.8 °C 1.2 °C 1032.1 hPa SSE 5.8 km/h 9.3 km/h 83% 0.0 mm CLR
09:35 3.9 °C 1.1 °C 1032.2 hPa South 5.8 km/h 9.3 km/h 82% 0.0 mm CLR
09:40 3.9 °C 1.1 °C 1032.2 hPa SSE 6.4 km/h 7.4 km/h 82% 0.0 mm CLR
09:45 4.1 °C 1.4 °C 1032.2 hPa South 6.4 km/h 9.3 km/h 83% 0.0 mm CLR
09:50 4.2 °C 1.4 °C 1032.3 hPa South 6.4 km/h 7.6 km/h 82% 0.0 mm CLR
09:55 4.5 °C 1.5 °C 1032.3 hPa South 6.4 km/h 9.3 km/h 81% 0.0 mm CLR
10:00 4.7 °C 1.6 °C 1032.3 hPa South 8.0 km/h 9.7 km/h 80% 0.0 mm CLR
10:05 5.2 °C 1.5 °C 1032.3 hPa SSW 6.4 km/h 9.3 km/h 77% 0.0 mm CLR
10:10 5.4 °C 1.5 °C 1032.3 hPa SSW 6.4 km/h 9.3 km/h 76% 0.0 mm CLR
10:15 5.6 °C 1.5 °C 1032.3 hPa SSW 6.4 km/h 12.2 km/h 75% 0.0 mm CLR
10:20 5.7 °C 1.4 °C 1032.5 hPa SW 6.9 km/h 13.0 km/h 74% 0.0 mm CLR
10:25 5.7 °C 1.2 °C 1032.5 hPa SSW 6.9 km/h 13.7 km/h 73% 0.0 mm CLR
10:30 5.7 °C 1.2 °C 1032.5 hPa SSW 8.7 km/h 11.9 km/h 73% 0.0 mm CLR
10:35 5.9 °C 1.4 °C 1032.6 hPa WSW 8.7 km/h 7.6 km/h 73% 0.0 mm CLR
10:40 6.0 °C 1.1 °C 1032.6 hPa SSW 6.4 km/h 11.1 km/h 71% 0.0 mm CLR
10:45 6.2 °C 1.3 °C 1032.6 hPa SW 6.4 km/h 9.3 km/h 71% 0.0 mm CLR
10:50 6.3 °C 1.4 °C 1032.5 hPa WSW 6.9 km/h 7.4 km/h 71% 0.0 mm CLR
10:55 6.6 °C 1.3 °C 1032.5 hPa West 6.9 km/h 7.4 km/h 69% 0.0 mm CLR
11:00 6.8 °C 1.1 °C 1032.5 hPa West 3.2 km/h 11.3 km/h 67% 0.0 mm CLR
11:05 7.0 °C 1.1 °C 1032.6 hPa WSW 4.7 km/h 7.6 km/h 66% 0.0 mm CLR
11:10 7.3 °C 1.4 °C 1032.6 hPa SSW 5.0 km/h 7.4 km/h 66% 0.0 mm CLR
11:15 7.7 °C 1.1 °C 1032.6 hPa WNW 5.0 km/h 7.4 km/h 63% 0.0 mm CLR
11:20 7.9 °C 0.8 °C 1032.4 hPa West 3.9 km/h 9.3 km/h 61% 0.0 mm CLR
11:25 8.0 °C 0.4 °C 1032.4 hPa West 3.9 km/h 8.4 km/h 59% 0.0 mm CLR
11:30 8.1 °C 0.8 °C 1032.4 hPa WSW 5.8 km/h 3.7 km/h 60% 0.0 mm CLR
11:35 8.4 °C 1.1 °C 1032.3 hPa WSW 5.8 km/h   60% 0.0 mm CLR
11:40 8.8 °C 1.0 °C 1032.3 hPa WSW 2.9 km/h 3.7 km/h 58% 0.0 mm CLR
11:45 9.1 °C 1.0 °C 1032.3 hPa WSW 2.9 km/h 3.7 km/h 57% 0.0 mm CLR
11:50 9.2 °C 0.9 °C 1032.1 hPa WSW 2.3 km/h   56% 0.0 mm CLR
11:55 9.6 °C 1.0 °C 1032.1 hPa SSE 2.3 km/h 7.4 km/h 55% 0.0 mm CLR
12:00 9.8 °C 0.9 °C 1032.1 hPa SW 1.6 km/h 8.0 km/h 54% 0.0 mm CLR
12:05 10.1 °C 0.9 °C 1031.7 hPa South 2.3 km/h 7.4 km/h 53% 0.0 mm CLR
12:10 10.4 °C 0.7 °C 1031.7 hPa SSW 3.2 km/h 7.6 km/h 51% 0.0 mm CLR
12:15 10.6 °C 0.6 °C 1031.7 hPa West 3.2 km/h 9.3 km/h 50% 0.0 mm CLR
12:20 10.6 °C 0.6 °C 1031.3 hPa South 5.0 km/h 7.6 km/h 50% 0.0 mm CLR
12:25 10.8 °C 0.8 °C 1031.3 hPa WSW 5.0 km/h 9.3 km/h 50% 0.0 mm CLR
12:30 10.9 °C 0.6 °C 1031.3 hPa SSE 4.7 km/h 9.3 km/h 49% 0.0 mm CLR
12:35 11.1 °C 0.8 °C 1031.0 hPa South 4.7 km/h 11.1 km/h 49% 0.0 mm CLR
12:40 11.2 °C 0.9 °C 1031.0 hPa SSW 7.6 km/h 11.1 km/h 49% 0.0 mm CLR
12:45 11.3 °C 0.9 °C 1031.0 hPa SW 7.6 km/h 11.1 km/h 49% 0.0 mm CLR
12:50 11.6 °C 0.9 °C 1030.6 hPa SW 6.9 km/h 11.1 km/h 48% 0.0 mm CLR
12:55 11.8 °C 0.8 °C 1030.6 hPa SSW 6.9 km/h 9.3 km/h 47% 0.0 mm CLR
13:00 11.9 °C 1.3 °C 1030.6 hPa SSW 8.0 km/h 12.9 km/h 48% 0.0 mm CLR
13:05 12.2 °C 1.2 °C 1030.3 hPa South 7.6 km/h 13.7 km/h 47% 0.0 mm CLR
13:10 12.2 °C 1.2 °C 1030.3 hPa SSW 8.7 km/h 11.1 km/h 47% 0.0 mm CLR
13:15 12.5 °C 1.5 °C 1030.3 hPa SSW 8.7 km/h 9.3 km/h 47% 0.0 mm CLR
13:20 12.7 °C 1.4 °C 1030.0 hPa WSW 8.4 km/h 8.4 km/h 46% 0.0 mm CLR
13:25 13.1 °C 1.7 °C 1030.0 hPa WSW 8.4 km/h 9.5 km/h 46% 0.0 mm CLR
13:30 13.2 °C 1.5 °C 1030.0 hPa SSW 5.8 km/h 5.8 km/h 45% 0.0 mm CLR
13:35 13.4 °C 1.1 °C 1029.7 hPa WSW 5.8 km/h 13.0 km/h 43% 0.0 mm CLR
13:40 13.4 °C 1.1 °C 1029.7 hPa WSW 6.9 km/h 3.7 km/h 43% 0.0 mm CLR
13:45 13.7 °C 1.3 °C 1029.7 hPa SW 6.9 km/h 5.6 km/h 43% 0.0 mm CLR
13:50 13.9 °C 0.8 °C 1029.6 hPa WSW 2.9 km/h 7.4 km/h 41% 0.0 mm CLR
13:55 14.1 °C 0.7 °C 1029.6 hPa NE 2.9 km/h 5.6 km/h 40% 0.0 mm CLR
14:00 14.3 °C 0.9 °C 1029.6 hPa SSW 3.2 km/h 8.0 km/h 40% 0.0 mm CLR
14:05 14.4 °C 0.6 °C 1029.3 hPa SSW 3.2 km/h 9.3 km/h 39% 0.0 mm CLR
14:10 14.4 °C 0.6 °C 1029.3 hPa SE 5.8 km/h 7.4 km/h 39% 0.0 mm CLR
14:15 14.6 °C 0.8 °C 1029.3 hPa SSW 5.8 km/h 9.3 km/h 39% 0.0 mm CLR
14:20 14.6 °C 0.8 °C 1029.2 hPa SSW 5.8 km/h 7.4 km/h 39% 0.0 mm CLR
14:25 14.8 °C 0.2 °C 1029.2 hPa SSE 5.8 km/h 11.1 km/h 37% 0.0 mm CLR
14:30 14.8 °C 0.2 °C 1029.2 hPa SW 5.8 km/h 9.3 km/h 37% 0.0 mm CLR
14:35 14.8 °C -0.2 °C 1028.8 hPa SE 5.8 km/h 9.3 km/h 36% 0.0 mm CLR
14:40 14.9 °C -0.1 °C 1028.8 hPa South 6.4 km/h 9.3 km/h 36% 0.0 mm CLR
14:45 15.0 °C -0.3 °C 1028.8 hPa South 6.4 km/h 9.3 km/h 35% 0.0 mm CLR
14:50 15.1 °C -0.3 °C 1028.6 hPa SSE 6.9 km/h 7.6 km/h 35% 0.0 mm CLR
14:55 15.3 °C -0.1 °C 1028.6 hPa SSW 6.9 km/h 11.1 km/h 35% 0.0 mm CLR
15:00 15.4 °C -0.4 °C 1028.6 hPa South 8.0 km/h 11.3 km/h 34% 0.0 mm CLR
15:05 15.6 °C -0.6 °C 1028.5 hPa SSW 6.4 km/h 6.4 km/h 33% 0.0 mm CLR
15:10 15.6 °C -0.2 °C 1028.5 hPa SSW 6.4 km/h 11.1 km/h 34% 0.0 mm CLR
15:15 15.8 °C -0.4 °C 1028.5 hPa SSW 6.4 km/h 11.1 km/h 33% 0.0 mm CLR
15:20 15.9 °C -0.4 °C 1028.4 hPa SSW 6.4 km/h 9.3 km/h 33% 0.0 mm CLR
15:25 16.1 °C -0.2 °C 1028.4 hPa SW 6.4 km/h 6.4 km/h 33% 0.0 mm CLR
15:30 16.2 °C -0.6 °C 1028.4 hPa SE 5.0 km/h 8.4 km/h 32% 0.0 mm CLR
15:35 16.3 °C -0.4 °C 1028.2 hPa SSE 5.0 km/h 7.6 km/h 32% 0.0 mm CLR
15:40 16.4 °C -0.3 °C 1028.2 hPa SSW 5.8 km/h 7.6 km/h 32% 0.0 mm CLR
15:45 16.5 °C -0.3 °C 1028.2 hPa South 5.8 km/h 9.5 km/h 32% 0.0 mm CLR
15:50 16.6 °C -0.6 °C 1028.2 hPa SSE 5.8 km/h 10.0 km/h 31% 0.0 mm CLR
15:55 16.6 °C -0.6 °C 1028.2 hPa SW 5.8 km/h 10.3 km/h 31% 0.0 mm CLR
16:00 16.7 °C -0.6 °C 1028.2 hPa South 8.0 km/h 11.3 km/h 31% 0.0 mm CLR
16:05 16.7 °C -1.0 °C 1028.0 hPa SW 6.4 km/h 11.1 km/h 30% 0.0 mm CLR
16:10 16.8 °C -0.9 °C 1028.0 hPa SSW 6.9 km/h 9.3 km/h 30% 0.0 mm CLR
16:15 16.8 °C -0.9 °C 1028.0 hPa SW 6.9 km/h 5.6 km/h 30% 0.0 mm CLR
16:20 16.9 °C -1.3 °C 1027.9 hPa SW 5.8 km/h 10.0 km/h 29% 0.0 mm CLR
16:25 17.1 °C -1.1 °C 1027.9 hPa SW 5.8 km/h 5.8 km/h 29% 0.0 mm CLR
16:30 17.2 °C -1.0 °C 1027.9 hPa SW 5.0 km/h 5.6 km/h 29% 0.0 mm CLR
16:35 17.3 °C -0.9 °C 1027.7 hPa SSE 5.0 km/h 7.4 km/h 29% 0.0 mm CLR
16:40 17.3 °C -0.9 °C 1027.7 hPa SW 4.7 km/h 7.4 km/h 29% 0.0 mm CLR
16:45 17.4 °C -0.8 °C 1027.7 hPa SW 4.7 km/h 3.7 km/h 29% 0.0 mm CLR
16:50 17.5 °C -1.2 °C 1027.7 hPa SW 3.9 km/h 4.7 km/h 28% 0.0 mm CLR
16:55 17.6 °C -0.7 °C 1027.7 hPa SW 3.9 km/h 7.4 km/h 29% 0.0 mm CLR
17:00 17.6 °C -1.2 °C 1027.7 hPa SW 3.2 km/h 8.0 km/h 28% 0.0 mm CLR
17:05 17.5 °C -0.8 °C 1027.6 hPa SW 3.9 km/h 6.9 km/h 29% 0.0 mm CLR
17:10 17.4 °C -0.8 °C 1027.6 hPa SW 4.7 km/h 5.8 km/h 29% 0.0 mm CLR
17:15 17.3 °C -0.9 °C 1027.6 hPa SW 4.7 km/h 9.3 km/h 29% 0.0 mm CLR
17:20 17.2 °C -1.0 °C 1027.4 hPa SW 5.0 km/h 5.6 km/h 29% 0.0 mm CLR
17:25 17.2 °C -1.0 °C 1027.4 hPa SW 5.0 km/h 3.7 km/h 29% 0.0 mm CLR
17:30 17.3 °C -0.4 °C 1027.4 hPa SW 3.2 km/h 3.7 km/h 30% 0.0 mm CLR
17:35 17.3 °C -0.4 °C 1027.4 hPa SW 3.2 km/h 5.6 km/h 30% 0.0 mm CLR
17:40 17.2 °C -0.6 °C 1027.4 hPa SW 3.2 km/h 7.4 km/h 30% 0.0 mm CLR
17:45 16.8 °C 0.0 °C 1027.4 hPa SSE 3.2 km/h 7.4 km/h 32% 0.0 mm CLR
17:50 16.4 °C 0.9 °C 1027.3 hPa SSE 5.0 km/h 7.4 km/h 35% 0.0 mm CLR
17:55 16.0 °C 0.9 °C 1027.3 hPa SSE 5.0 km/h 7.4 km/h 36% 0.0 mm CLR
18:00 15.7 °C 1.1 °C 1027.3 hPa SSE 4.8 km/h 9.7 km/h 37% 0.0 mm CLR
18:05 15.3 °C 1.4 °C 1027.4 hPa South 5.0 km/h 7.4 km/h 39% 0.0 mm CLR
18:10 15.1 °C 1.6 °C 1027.4 hPa South 5.8 km/h 7.4 km/h 40% 0.0 mm CLR
18:15 14.9 °C 2.4 °C 1027.4 hPa SW 5.8 km/h 13.0 km/h 43% 0.0 mm CLR
18:20 14.8 °C 3.6 °C 1027.5 hPa WSW 6.9 km/h 11.1 km/h 47% 0.0 mm CLR
18:25 14.7 °C 4.1 °C 1027.5 hPa SW 6.9 km/h 9.3 km/h 49% 0.0 mm CLR
18:30 14.5 °C 5.3 °C 1027.5 hPa SW 6.9 km/h 9.5 km/h 54% 0.0 mm CLR
18:35 14.3 °C 5.9 °C 1027.5 hPa SW 6.9 km/h 9.3 km/h 57% 0.0 mm CLR
18:40 14.2 °C 5.3 °C 1027.5 hPa SW 6.9 km/h 4.7 km/h 55% 0.0 mm CLR
18:45 13.8 °C 4.1 °C 1027.5 hPa SW 6.9 km/h 4.7 km/h 52% 0.0 mm CLR
18:50 13.5 °C 4.9 °C 1027.8 hPa SW 3.9 km/h 7.4 km/h 56% 0.0 mm CLR
18:55 13.4 °C 5.6 °C 1027.8 hPa SW 3.9 km/h 11.1 km/h 59% 0.0 mm CLR
19:00 13.3 °C 5.7 °C 1027.8 hPa SSW 8.0 km/h 14.5 km/h 60% 0.0 mm CLR
19:05 13.1 °C 6.2 °C 1027.9 hPa SSW 6.4 km/h 13.0 km/h 63% 0.0 mm CLR
19:10 12.9 °C 6.2 °C 1027.9 hPa SW 8.4 km/h 7.4 km/h 64% 0.0 mm CLR
19:15 12.8 °C 6.6 °C 1027.9 hPa South 8.4 km/h 9.3 km/h 66% 0.0 mm CLR
19:20 12.6 °C 6.8 °C 1028.1 hPa SW 6.4 km/h 11.1 km/h 68% 0.0 mm CLR
19:25 12.4 °C 6.9 °C 1028.1 hPa SSW 6.4 km/h 8.4 km/h 69% 0.0 mm CLR
19:30 12.3 °C 7.0 °C 1028.1 hPa SSW 6.9 km/h 7.4 km/h 70% 0.0 mm CLR
19:35 12.1 °C 7.0 °C 1028.2 hPa SW 6.9 km/h 9.3 km/h 71% 0.0 mm CLR
19:40 11.9 °C 7.0 °C 1028.2 hPa SW 4.7 km/h 11.1 km/h 72% 0.0 mm CLR
19:45 11.8 °C 7.1 °C 1028.2 hPa SW 4.7 km/h 14.8 km/h 73% 0.0 mm CLR
19:50 11.7 °C 7.0 °C 1028.4 hPa SW 8.4 km/h 14.8 km/h 73% 0.0 mm CLR
19:55 11.5 °C 7.0 °C 1028.4 hPa SW 8.4 km/h 13.0 km/h 74% 0.0 mm CLR
20:00 11.4 °C 6.9 °C 1028.4 hPa SSW 9.7 km/h 14.5 km/h 74% 0.0 mm CLR
20:05 11.2 °C 6.9 °C 1028.5 hPa SSW 8.7 km/h 13.0 km/h 75% 0.0 mm CLR
20:10 11.1 °C 6.8 °C 1028.5 hPa SW 9.5 km/h 14.8 km/h 75% 0.0 mm CLR
20:15 10.9 °C 6.8 °C 1028.5 hPa SW 9.5 km/h 14.8 km/h 76% 0.0 mm CLR
20:20 10.8 °C 6.9 °C 1028.4 hPa SW 9.5 km/h 14.8 km/h 77% 0.0 mm CLR
20:25 10.8 °C 6.9 °C 1028.4 hPa SW 9.5 km/h 13.7 km/h 77% 0.0 mm CLR
20:30 10.7 °C 6.8 °C 1028.4 hPa SSW 8.7 km/h 13.0 km/h 77% 0.0 mm CLR
20:35 10.6 °C 6.9 °C 1028.4 hPa South 8.7 km/h 13.0 km/h 78% 0.0 mm CLR
20:40 10.4 °C 6.7 °C 1028.4 hPa South 8.7 km/h 13.0 km/h 78% 0.0 mm CLR
20:45 10.4 °C 6.9 °C 1028.4 hPa South 8.7 km/h 9.3 km/h 79% 0.0 mm CLR
20:50 10.4 °C 6.9 °C 1028.5 hPa SSW 8.4 km/h 13.0 km/h 79% 0.0 mm CLR
20:55 10.4 °C 6.7 °C 1028.5 hPa SW 8.4 km/h 11.1 km/h 78% 0.0 mm CLR
21:00 10.5 °C 6.8 °C 1028.5 hPa SW 8.0 km/h 11.3 km/h 78% 0.0 mm CLR
21:05 10.7 °C 6.7 °C 1028.6 hPa SW 7.6 km/h 11.1 km/h 76% 0.0 mm CLR
21:10 10.8 °C 6.7 °C 1028.6 hPa SSW 8.4 km/h 11.1 km/h 76% 0.0 mm CLR
21:15 10.8 °C 6.6 °C 1028.6 hPa SW 8.4 km/h 13.0 km/h 75% 0.0 mm CLR
21:20 10.8 °C 6.6 °C 1028.5 hPa South 8.4 km/h 13.0 km/h 75% 0.0 mm CLR
21:25 10.9 °C 6.7 °C 1028.5 hPa SSW 8.4 km/h 14.8 km/h 75% 0.0 mm CLR
21:30 10.9 °C 6.7 °C 1028.5 hPa SSW 9.5 km/h 14.8 km/h 75% 0.0 mm CLR
21:35 10.8 °C 6.6 °C 1028.5 hPa SSW 9.5 km/h 14.8 km/h 75% 0.0 mm CLR
21:40 10.7 °C 6.7 °C 1028.5 hPa South 9.5 km/h 13.0 km/h 76% 0.0 mm CLR
21:45 10.6 °C 6.7 °C 1028.5 hPa South 9.5 km/h 13.0 km/h 77% 0.0 mm CLR
21:50 10.4 °C 6.7 °C 1028.4 hPa SSW 10.0 km/h 11.1 km/h 78% 0.0 mm CLR
21:55 10.2 °C 6.6 °C 1028.4 hPa SSW 10.0 km/h 14.8 km/h 78% 0.0 mm CLR
22:00 10.2 °C 6.5 °C 1028.4 hPa South 9.7 km/h 14.5 km/h 78% 0.0 mm CLR
22:05 10.1 °C 6.6 °C 1028.3 hPa SSW 9.5 km/h 11.1 km/h 79% 0.0 mm CLR
22:10 10.0 °C 6.7 °C 1028.3 hPa SSW 8.4 km/h 18.5 km/h 80% 0.0 mm CLR
22:15 10.1 °C 6.6 °C 1028.3 hPa SSW 8.4 km/h 9.3 km/h 79% 0.0 mm CLR
22:20 10.1 °C 6.6 °C 1028.3 hPa SSE 8.4 km/h 13.0 km/h 79% 0.0 mm CLR
22:25 10.1 °C 6.6 °C 1028.3 hPa SSE 8.4 km/h 9.3 km/h 79% 0.0 mm CLR
22:30 9.9 °C 6.4 °C 1028.3 hPa SSE 6.9 km/h 11.1 km/h 79% 0.0 mm CLR
22:35 9.7 °C 6.4 °C 1028.3 hPa South 6.9 km/h 13.0 km/h 80% 0.0 mm CLR
22:40 9.6 °C 6.3 °C 1028.3 hPa SSE 9.5 km/h 13.0 km/h 80% 0.0 mm CLR
22:45 9.4 °C 6.3 °C 1028.3 hPa South 9.5 km/h 13.0 km/h 81% 0.0 mm CLR
22:50 9.3 °C 6.2 °C 1028.2 hPa South 10.0 km/h 16.7 km/h 81% 0.0 mm CLR
22:55 9.4 °C 6.3 °C 1028.2 hPa SSW 10.0 km/h 14.8 km/h 81% 0.0 mm CLR
23:00 9.5 °C 6.4 °C 1028.2 hPa SSW 11.3 km/h 19.3 km/h 81% 0.0 mm CLR
23:05 9.6 °C 6.3 °C 1028.3 hPa South 10.3 km/h 11.1 km/h 80% 0.0 mm CLR
23:10 9.6 °C 6.3 °C 1028.3 hPa SSE 6.9 km/h 5.6 km/h 80% 0.0 mm CLR
23:15 9.5 °C 6.2 °C 1028.3 hPa South 6.9 km/h 9.3 km/h 80% 0.0 mm CLR
23:20 9.3 °C 6.2 °C 1028.4 hPa SSW 5.8 km/h 9.3 km/h 81% 0.0 mm CLR
23:25 9.2 °C 6.1 °C 1028.4 hPa South 5.8 km/h 13.0 km/h 81% 0.0 mm CLR
23:30 9.2 °C 6.1 °C 1028.4 hPa SSW 8.4 km/h 11.9 km/h 81% 0.0 mm CLR
23:35 9.1 °C 6.0 °C 1028.2 hPa SSW 8.4 km/h 13.0 km/h 81% 0.0 mm CLR
23:40 9.1 °C 6.0 °C 1028.2 hPa SSW 8.7 km/h 9.3 km/h 81% 0.0 mm CLR
23:45 8.9 °C 5.8 °C 1028.2 hPa SSE 8.7 km/h 11.1 km/h 81% 0.0 mm CLR
23:50 8.8 °C 5.7 °C 1028.0 hPa South 6.9 km/h 11.1 km/h 81% 0.0 mm CLR
23:55 8.6 °C 5.7 °C 1028.0 hPa South 6.9 km/h 14.8 km/h 82% 0.0 mm CLR
Murcia-Puente Tocinos, España
Compliments of Weather Underground - 2.75 mb

La estación de MeteoMurcia.com, publica sus datos en los siguientes proyectos:

Weather Underground PWS IMURCIAP2 Meteoclimatic www.awekas.at

W3Counter
Web Analytics